#timestamp,LO_Frequency,Hit,StdDev 
1689235215.4,286046999.9,N
1689235235.2,286047000.5,N
1689235255.1,286046999.9,N
1689235256.0,286046999.9,N
1689235275.8,286047001.0,N
1689235295.7,286047000.7,N
1689235315.5,286047000.5,N
1689235335.3,286047000.7,N
1689235355.2,286047000.5,N
1689235375.0,286047000.0,N
1689235375.9,286047000.0,N
1689235395.8,286047000.3,N
1689235415.6,286047000.2,N
1689235435.4,286047000.3,N
1689235455.3,286047002.8,Y
1689235475.1,286047000.6,P
1689235495.8,286047000.3,N
1689235515.7,286047000.0,N
1689235535.5,286047000.3,N
1689235555.4,286047000.2,N
1689235575.2,286047000.9,Y
1689235595.0,286047000.7,P
1689235595.9,286047000.7,P
1689235615.8,286047001.0,P
1689235635.6,286047000.7,N
1689235655.5,286047000.6,N
1689235675.3,286047000.1,N
1689235695.1,286047000.8,N
1689235715.9,286047000.7,N
1689235735.7,286047000.3,N
1689235755.5,286046998.5,Y
1689235775.4,286047001.1,P
1689235795.2,286047000.9,P
1689235815.1,286047000.6,N
1689235816.0,286047000.6,N
1689235835.8,286046998.1,Y
1689235855.6,286046998.3,P
1689235875.5,286046998.8,N
1689235895.3,286046998.4,N
1689235915.2,286046998.8,N
1689235935.9,286046998.9,N
1689235955.7,286046998.9,N
1689235975.6,286046998.5,N
1689235995.4,286046998.6,N
1689236015.2,286046998.6,N
1689236035.1,286046998.6,N
1689236036.0,286046998.6,N
1689236055.8,286047001.0,N
1689236075.7,286047001.1,N
1689236095.5,286047001.0,N
1689236115.3,286047001.2,N
1689236135.2,286046998.3,N
1689236155.0,286046998.5,N
1689236185.9,286046998.7,E
1689236195.8,286047000.7,N
1689236215.7,286047002.7,P
1689236235.5,286047000.5,N
1689236255.3,286047002.8,N
1689236275.2,286046999.8,N
1689236295.0,286047000.3,N
1689236295.9,286047000.3,N
1689236315.8,286047002.8,N
1689236335.6,286046999.8,N
1689236355.4,286047002.3,N
1689236375.3,286047002.3,N
1689236395.1,286047002.7,N
1689236415.9,286047002.7,N
1689236435.7,286047002.7,N
1689236455.5,286047002.2,N
1689236475.4,286047002.2,N
1689236495.2,286047002.0,N
1689236515.0,286047004.0,Y
1689236515.9,286047004.0,P
1689236535.8,286047000.6,N
1689236555.6,286047000.8,N
1689236575.5,286047000.6,N
1689236595.3,286047000.5,N
1689236615.1,286047001.0,N
1689236635.9,286047001.1,N
1689236655.7,286047001.0,N
1689236675.5,286047001.0,N
1689236695.4,286047001.2,N
1689236715.2,286046998.7,N
1689236735.1,286046998.3,N
1689236736.0,286046998.3,N
1689236755.8,286047001.1,N
1689236775.6,286047000.9,N
1689236795.5,286046998.1,N
1689236815.3,286046998.6,N
1689236835.1,286046998.8,N
1689236855.9,286046998.3,N
1689236875.7,286047001.2,N
1689236895.6,286046998.4,N
1689236915.4,286046998.3,N
1689236935.2,286046998.6,N
1689236955.1,286046998.6,N
1689236956.0,286046998.6,N
1689236975.8,286047000.8,N
1689236995.6,286046998.5,N
1689237015.5,286046998.5,N
1689237035.3,286047001.2,N
1689237055.2,286047000.4,N
1689237075.9,286047000.9,N
1689237095.7,286047000.1,N
1689237115.6,286046999.9,N
1689237135.4,286046999.7,N
1689237155.2,286047000.1,N
1689237175.1,286047000.9,N
1689237176.0,286047000.9,N
1689237195.8,286047000.4,N
1689237215.7,286047000.3,N
1689237235.5,286047000.3,N
1689237255.3,286046998.2,N
1689237275.2,286046999.0,N
1689237295.0,286046999.0,N
1689237295.9,286046999.0,N
1689237315.8,286046999.1,N
1689237335.6,286046997.0,N
1689237355.4,286046997.8,N
1689237375.3,286046999.2,N
1689237395.1,286046999.6,N
1689237415.8,286046998.7,N
1689237435.7,286046998.8,N
1689237455.5,286046998.7,N
1689237475.4,286046998.4,N
1689237495.2,286046998.6,N
1689237515.0,286046999.0,N
1689237515.9,286046999.0,N
1689237535.8,286047001.0,N
1689237555.6,286047001.2,N
1689237575.4,286046998.4,N
1689237595.3,286046999.5,N
1689237615.1,286046999.5,N
1689237635.9,286046999.5,N
1689237655.7,286046999.5,N
1689237675.5,286046999.4,N
1689237695.4,286046999.1,N
1689237715.2,286046999.1,N
1689237735.0,286046999.5,N
1689237735.9,286046999.5,N
1689237755.8,286046997.3,Y
1689237775.6,286046999.2,P
1689237795.5,286046996.5,P
1689237815.3,286046999.6,N
1689237835.1,286046996.9,N
1689237855.9,286046997.0,N
1689237875.7,286046997.8,N
1689237895.5,286046997.4,N
1689237915.4,286046999.6,N
1689237935.2,286046997.0,N
1689237955.1,286046996.9,N
1689237956.0,286046996.9,N
1689237975.8,286046997.2,N
1689237995.6,286046997.7,N
1689238015.5,286046996.7,Y
1689238035.3,286046998.7,P
1689238055.1,286046999.2,N
1689238075.9,286046998.7,N
1689238095.7,286046999.1,N
1689238115.6,286046996.7,Y
1689238135.4,286046998.8,P
1689238155.2,286046998.7,P
1689238175.1,286046999.3,P
1689238176.0,286046999.3,N
1689238195.8,286046998.5,Y
1689238215.6,286046999.9,P
1689238235.5,286047000.0,N
1689238255.3,286047000.5,N
1689238275.2,286047000.3,N
1689238295.9,286047000.6,N
1689238315.7,286047000.7,N
1689238335.6,286046998.5,N
1689238355.4,286046999.1,N
1689238375.2,286046998.4,N
1689238395.1,286046998.2,N
1689238396.0,286046998.2,N
1689238415.8,286046998.6,N
1689238435.7,286046999.2,N
1689238455.5,286046998.9,N
1689238475.3,286046999.3,N
1689238495.2,286046999.2,N
1689238515.0,286046999.2,N
1689238515.9,286046999.2,N
1689238535.7,286046999.5,N
1689238555.6,286046999.0,N
1689238575.4,286046998.6,N
1689238595.3,286047001.2,N
1689238615.1,286047000.7,N
1689238616.0,286047000.7,N
1689238635.8,286047001.1,N
1689238655.7,286047001.2,N
1689238675.5,286046998.2,N
1689238695.3,286046998.1,N
1689238715.2,286046998.9,N
1689238735.0,286046996.6,Y
1689238735.9,286046996.6,P
1689238755.8,286046997.1,N
1689238775.6,286046998.6,N
1689238795.4,286046999.4,N
